Flag for Norway Weather past 2 weeks in Kolbotn, Norway

Now
59 °F

Passing clouds.


Feels Like: 55 °F
Forecast: 57 / 72 °F
Wind: 25 mph from Southwest

Location: Oslo / Fornebu

Current Time: Jul 29, 2014 at 11:54:40 PM

Latest Report: Jul 29, 2014 at 11:20 PM


Visibility: N/A

Pressure: 29.68 "Hg

Humidity: 82%

Dew point: 54 °F

Location of KolbotnLocation

Historic Weather in Kolbotn — Graph

°F

Kolbotn temperature yesterday

Maximum temperature yesterday: 68 °F (at 4:50 PM)
Minimum temperature yesterday: 59 °F (at 5:20 AM)
Average temperature yesterday: 62 °F

Past Weeks' High & Low Weather Summary

 TemperatureHumidityPressure
High75 °F (Jul 20, 2:20 PM)100% (Jul 15, 9:50 PM)30.39 "Hg (Jul 15, 9:50 PM)
Low54 °F (Jul 18, 7:20 AM)47% (Jul 21, 12:20 AM)29.65 "Hg (Jul 15, 9:20 AM)
Average62 °F86%30.06 "Hg
* Reported Jul 14 10:20 PM — Jul 29 10:20 PM, Kolbotn, Weather by CustomWeather, © 2014

Note: Actual official high and low records may vary slightly from our data, if they occured in-between our weather recording intervals... More about our weather records

Advertising

Kolbotn weather history for previous 24 hours

 ConditionsComfort  
Time TempWeatherWind HumidityBarometerVisibility
10:20 PM
Jul 29
59 °FPartly sunny.23 mph82%29.68 "HgN/A
9:50 PM59 °FPartly sunny.24 mph82%29.68 "HgN/A
9:20 PM59 °FPassing clouds.23 mph82%29.71 "HgN/A
8:50 PM59 °FBroken clouds.21 mph82%29.71 "HgN/A
8:20 PM59 °FPartly sunny.21 mph88%29.71 "HgN/A
7:50 PM59 °FPartly sunny.20 mph88%29.71 "HgN/A
7:20 PM59 °FPartly sunny.20 mph88%29.71 "HgN/A
6:50 PM61 °FPartly sunny.17 mph83%29.74 "HgN/A
6:20 PM59 °FBroken clouds.15 mph94%29.74 "HgN/A
5:50 PM59 °FRain showers. Partly sunny.18 mph94%29.74 "Hg3 mi
5:20 PM63 °FPartly sunny.29 mph83%29.74 "HgN/A
4:50 PM63 °FPartly sunny.28 mph83%29.74 "HgN/A
4:20 PM63 °FBroken clouds.26 mph83%29.77 "HgN/A
3:50 PM63 °FPartly sunny.24 mph83%29.77 "HgN/A
3:20 PM64 °FPartly sunny.23 mph78%29.77 "HgN/A
2:50 PM63 °FPartly sunny.23 mph83%29.80 "HgN/A
2:20 PM63 °FPartly sunny.21 mph83%29.80 "HgN/A
1:50 PM63 °FPartly sunny.18 mph83%29.80 "HgN/A
1:20 PM63 °FBroken clouds.18 mph83%29.80 "HgN/A
12:50 PM63 °FMostly cloudy.16 mph83%29.83 "HgN/A
12:20 PM61 °FOvercast.15 mph83%29.83 "HgN/A
11:50 AM61 °FPartly sunny.12 mph83%29.83 "HgN/A
11:20 AM59 °FScattered clouds.10 mph88%29.83 "HgN/A
10:50 AM59 °FOvercast.15 mph88%29.83 "HgN/A
10:20 AM59 °FOvercast.14 mph88%29.86 "HgN/A
9:50 AM59 °FOvercast.12 mph88%29.86 "HgN/A
9:20 AM57 °FPartly sunny.15 mph94%29.86 "HgN/A
8:50 AM57 °FPartly sunny.16 mph94%29.86 "HgN/A
8:20 AM59 °FSprinkles. Partly sunny.16 mph94%29.86 "HgN/A
7:50 AM59 °FOvercast.14 mph94%29.86 "HgN/A
7:20 AM59 °FOvercast.15 mph94%29.86 "HgN/A
6:50 AM59 °FOvercast.15 mph94%29.86 "HgN/A
6:20 AM59 °FLow clouds.14 mph94%29.89 "HgN/A
5:50 AM59 °FLow clouds.16 mph94%29.89 "HgN/A
5:20 AM59 °FLow clouds.15 mph94%29.89 "HgN/A
4:50 AM59 °FLow clouds.14 mph94%29.89 "HgN/A
4:20 AM59 °FLow clouds.14 mph94%29.89 "HgN/A
3:50 AM59 °FLow clouds.13 mph100%29.92 "HgN/A
3:20 AM59 °FLow clouds.10 mph94%29.92 "HgN/A
2:50 AM59 °FLow clouds.13 mph94%29.92 "HgN/A
2:20 AM59 °FLow clouds.10 mph94%29.92 "HgN/A
1:50 AM61 °FLow clouds.10 mph94%29.95 "HgN/A
1:20 AM61 °FLow clouds.7 mph88%29.95 "HgN/A
12:50 AM61 °FOvercast.10 mph88%29.95 "HgN/A
12:20 AM61 °FOvercast.7 mph83%29.95 "HgN/A
11:50 PM
Jul 28
61 °FOvercast.6 mph83%29.95 "HgN/A
11:20 PM61 °FOvercast.6 mph83%29.95 "HgN/A
Weather by CustomWeather, © 2014

See weather overviewHow to use our weather pages